Home   Weather   Bülach   Past weeks

Flag for Switzerland Past Weather in Bülach, Zurich, Switzerland — Yesterday and Last 2 Weeks

Now
38 °F

Chilly.


Feels Like: 36 °F
Forecast: 29 / 43 °F
Wind: 3 mph from Northwest

Location: Zurich-Kloten

Current Time: Apr 27, 2017 at 7:33:40 am

Latest Report: Apr 27, 2017 at 6:00 am


Visibility: N/A

Pressure: 29.96 "Hg

Humidity: 93%

Dew Point: 36 °F

Location of BülachLocation

Past Weather in Bülach — Graph

°F

Bülach Temperature Yesterday

Maximum temperature yesterday: 45 °F (at 12:00 am)
Minimum temperature yesterday: 33 °F (at 10:00 am)
Average temperature yesterday: 38 °F

High & Low Weather Summary for the Past Weeks

 TemperatureHumidityPressure
High68 °F (Apr 12, 5:00 pm)100% (Apr 18, 2:00 am)30.59 "Hg (Apr 18, 2:00 am)
Low23 °F (Apr 21, 7:00 am)24% (Apr 21, 3:00 pm)29.75 "Hg (Apr 25, 11:00 pm)
Average46 °F70%30.15 "Hg
* Reported Apr 12 6:00 am — Apr 27 6:00 am, Bülach, Weather by CustomWeather, © 2017

Note: Actual official high and low records may vary slightly from our data, if they occured in-between our weather recording intervals... More about our weather records

Advertising

Bülach Weather History for the Previous 24 Hours

Scroll right to see more
 ConditionsComfort  
Time TempWeatherWind HumidityBarometerVisibility
6:00 am
Thu, Apr 27
38 °FChilly.3 mph93%29.96 "HgN/A
5:00 am38 °FRain. Low clouds.No wind96%29.95 "Hg5 mi
4:00 am38 °FChilly.2 mph95%29.95 "HgN/A
3:00 am38 °FChilly.2 mph97%29.95 "HgN/A
2:00 am39 °FRain. Low clouds.1 mph93%29.95 "Hg3 mi
1:00 am39 °FChilly.3 mph94%29.93 "HgN/A
12:00 am39 °FChilly.2 mph93%29.93 "HgN/A
11:00 pm
Wed, Apr 26
39 °FFog.6 mph91%29.93 "Hg6 mi
10:00 pm39 °FChilly.5 mph90%29.93 "HgN/A
9:00 pm39 °FChilly.6 mph93%29.92 "HgN/A
8:00 pm39 °FLight rain. Overcast.7 mph87%29.91 "Hg12 mi
7:00 pm40 °FChilly.7 mph88%29.89 "HgN/A
6:00 pm40 °FQuite cool.5 mph85%29.90 "HgN/A
5:00 pm40 °FOvercast.7 mph84%29.90 "Hg12 mi
4:00 pm40 °FChilly.7 mph86%29.90 "HgN/A
3:00 pm38 °FChilly.7 mph88%29.90 "HgN/A
2:00 pm38 °FLight rain. Low clouds.7 mph91%29.89 "Hg7 mi
1:00 pm37 °FChilly.5 mph91%29.88 "HgN/A
12:00 pm35 °FChilly.5 mph96%29.88 "HgN/A
11:00 am33 °FSnow. Low clouds.5 mph98%29.87 "Hg1 mi
10:00 am33 °FChilly.6 mph100%29.85 "HgN/A
9:00 am33 °FChilly.6 mph99%29.84 "HgN/A
8:00 am33 °FSnow. Overcast.8 mph98%29.83 "Hg1 mi
7:00 am35 °FChilly.6 mph98%29.82 "HgN/A
Weather by CustomWeather, © 2017

See weather overviewHow to use our weather pages